#timestamp,LO_Frequency,Hit,StdDev 
1550815215.4,286047004.0,N
1550815235.2,286047001.4,N
1550815255.1,286047002.1,N
1550815256.0,286047002.1,N
1550815275.8,286047003.6,N
1550815295.6,286047007.0,Y
1550815315.5,286047001.9,P
1550815335.3,286047001.1,P
1550815355.2,286046999.1,N
1550815375.9,286046998.8,N
1550815395.7,286047001.1,N
1550815415.6,286046999.7,N
1550815435.4,286047002.2,N
1550815455.2,286047001.0,N
1550815475.1,286047001.2,N
1550815476.0,286047001.2,N
1550815495.8,286046999.5,N
1550815515.7,286046998.6,N
1550815535.5,286047001.1,N
1550815555.3,286047000.7,N
1550815575.2,286046998.6,N
1550815595.0,286046998.4,N
1550815595.9,286046998.4,N
1550815615.8,286047001.0,N
1550815635.6,286047002.5,N
1550815655.4,286047001.0,N
1550815675.3,286046998.3,N
1550815695.1,286046998.6,N
1550815715.9,286046998.4,N
1550815735.7,286046999.0,N
1550815755.5,286046999.2,N
1550815775.4,286047000.8,N
1550815795.2,286046998.2,N
1550815815.0,286047000.3,N
1550815815.9,286047000.3,N
1550815835.8,286047000.1,N
1550815855.6,286047000.7,N
1550815875.5,286047001.1,N
1550815895.3,286047001.0,N
1550815915.1,286047001.2,N
1550815935.9,286047001.2,N
1550815955.7,286047000.6,N
1550815975.5,286047002.8,N
1550815995.4,286047002.0,N
1550816015.2,286047002.6,N
1550816035.1,286047001.5,N
1550816036.0,286047001.5,N
1550816055.8,286047002.6,N
1550816075.6,286047001.3,N
1550816095.5,286047002.0,N
1550816115.3,286047002.7,N
1550816135.2,286047002.8,N
1550816155.9,286047000.1,N
1550816175.7,286046998.1,N
1550816195.6,286046998.9,N
1550816215.4,286046998.3,N
1550816235.2,286047000.8,N
1550816255.1,286047001.2,N
1550816256.0,286047001.2,N
1550816275.8,286046998.3,N
1550816295.7,286046998.2,N
1550816315.5,286047000.5,N
1550816335.3,286047001.0,N
1550816355.2,286046998.6,N
1550816375.0,286047000.8,N
1550816375.9,286047000.8,N
1550816395.8,286046998.9,N
1550816415.6,286046999.0,N
1550816435.4,286046998.8,N
1550816455.3,286046997.0,N
1550816475.1,286046998.7,N
1550816495.8,286046998.2,N
1550816515.7,286047000.7,N
1550816535.5,286046999.1,N
1550816555.4,286046998.6,N
1550816575.2,286046997.2,N
1550816595.0,286046997.9,N
1550816595.9,286046997.9,N
1550816615.8,286046996.7,N
1550816635.6,286046997.8,N
1550816655.5,286046996.6,N
1550816675.3,286046996.9,N
1550816695.1,286046997.7,N
1550816715.9,286046995.5,Y
1550816735.7,286046999.6,P
1550816755.6,286046998.2,P
1550816775.4,286046998.6,N
1550816795.2,286046999.3,N
1550816815.1,286046998.5,Y
1550816816.0,286046998.5,P
1550816835.8,286046999.8,N
1550816855.6,286047000.8,N
1550816875.5,286047000.1,N
1550816895.3,286047002.6,Y
1550816915.2,286047004.0,P
1550816935.9,286047001.9,N
1550816955.7,286047001.5,N
1550816975.6,286047003.7,N
1550816995.4,286047003.2,N
1550817015.2,286047004.2,N
1550817035.1,286047003.9,N
1550817036.0,286047003.9,N
1550817055.8,286047001.6,N
1550817075.7,286047003.0,N
1550817095.5,286047001.5,N
1550817115.3,286047002.3,N
1550817135.2,286047001.8,N
1550817155.0,286047001.6,N
1550817155.9,286047001.6,N
1550817175.8,286047002.5,N
1550817195.6,286047003.8,Y
1550817215.4,286047000.1,P
1550817235.3,286047000.9,N
1550817255.1,286046999.8,N
1550817275.8,286047000.4,N
1550817295.7,286047000.9,N
1550817315.5,286046998.5,N
1550817335.4,286046998.2,N
1550817355.2,286047000.9,N
1550817375.0,286046998.9,N
1550817375.9,286046998.9,N
1550817395.8,286046996.6,N
1550817415.6,286046997.3,N
1550817435.5,286047001.1,N
1550817455.3,286047000.3,N
1550817475.1,286047000.6,N
1550817495.9,286047001.2,N
1550817515.7,286046999.7,N
1550817535.5,286047002.8,N
1550817555.4,286047002.4,N
1550817575.2,286047002.0,N
1550817595.1,286047003.1,N
1550817596.0,286047003.1,N
1550817615.8,286047006.2,Y
1550817635.6,286047004.7,P
1550817655.5,286047004.2,N
1550817675.3,286047001.5,N
1550817695.1,286047001.5,N
1550817715.9,286047002.2,N
1550817735.7,286047001.6,N
1550817755.6,286047000.7,N
1550817775.4,286046998.4,N
1550817795.2,286046998.4,N
1550817815.1,286047001.0,N
1550817816.0,286047001.0,N
1550817835.8,286046998.3,N
1550817855.6,286047000.8,N
1550817875.5,286047001.1,N
1550817895.3,286047000.7,N
1550817915.2,286047000.0,N
1550817935.9,286047000.8,N
1550817955.7,286047000.0,N
1550817975.6,286046998.6,N
1550817995.4,286046998.4,N
1550818015.2,286046999.4,N
1550818035.1,286046997.0,N
1550818036.0,286046997.0,N
1550818055.8,286046999.5,N
1550818075.7,286046999.3,N
1550818095.5,286046996.6,N
1550818115.3,286046997.0,N
1550818135.2,286046998.7,N
1550818155.0,286046998.9,N
1550818155.9,286046998.9,N
1550818175.8,286046996.8,N
1550818195.6,286046997.9,N
1550818215.4,286046997.5,N
1550818235.3,286046998.0,N
1550818255.1,286046994.9,Y
1550818275.8,286046995.7,P
1550818295.7,286046995.4,N
1550818315.5,286046993.7,P
1550818335.4,286046995.8,N
1550818355.2,286046995.9,N
1550818375.0,286046993.3,Y
1550818375.9,286046993.3,P
1550818395.8,286046996.5,N
1550818415.6,286046996.5,N
1550818435.4,286046996.5,N
1550818455.3,286046997.2,N
1550818475.1,286046997.5,N
1550818495.9,286046999.3,N
1550818515.7,286046998.4,N
1550818535.5,286046998.6,N
1550818555.4,286047001.2,N
1550818575.2,286046998.9,N
1550818595.0,286046996.9,N
1550818596.0,286046996.9,N
1550818615.8,286046999.5,N
1550818635.6,286046996.6,N
1550818655.5,286046999.6,N
1550818675.3,286046999.5,N
1550818695.1,286046995.1,N
1550818715.9,286046997.8,N
1550818735.7,286046997.0,N
1550818755.5,286046999.6,N
1550818775.4,286046996.9,N
1550818795.2,286046997.5,N
